Flag for Belgium Weather past 2 weeks in Mons, Belgium

Now
43 °F

Passing clouds.


Feels Like: 37 °F
Forecast: 47 / 57 °F
Wind: 10 mph from West

Location: Chievres

Current Time: Oct 22, 2014 at 8:38:23 AM

Latest Report: Oct 22, 2014 at 7:25 AM


Visibility: N/A

Pressure: 30.12 "Hg

Humidity: 81%

Dew point: 37 °F

Location of MonsLocation

Historic Weather in Mons — Graph

°F

Mons temperature yesterday

Maximum temperature yesterday: 57 °F (at 12:25 PM)
Minimum temperature yesterday: 46 °F (at 11:55 PM)
Average temperature yesterday: 53 °F

Past Weeks' High & Low Weather Summary

 TemperatureHumidityPressure
High73 °F (Oct 18, 3:25 PM)100% (Oct 8, 11:25 AM)30.12 "Hg (Oct 8, 11:25 AM)
Low43 °F (Oct 22, 7:25 AM)63% (Oct 21, 5:25 PM)29.47 "Hg (Oct 7, 7:25 AM)
Average57 °F86%29.81 "Hg
* Reported Oct 7 7:25 AM — Oct 22 7:25 AM, Mons, Weather by CustomWeather, © 2014

Note: Actual official high and low records may vary slightly from our data, if they occured in-between our weather recording intervals... More about our weather records

Advertising

Mons weather history for previous 24 hours

 ConditionsComfort  
Time TempWeatherWind HumidityBarometerVisibility
7:25 AM
Oct 22
43 °FPassing clouds.10 mph81%30.12 "HgN/A
6:25 AM45 °FPassing clouds.13 mph76%30.12 "HgN/A
5:25 AM45 °FQuite cool.15 mph76%30.09 "HgN/A
4:25 AM45 °FQuite cool.14 mph76%30.09 "HgN/A
3:25 AM46 °FPassing clouds.15 mph71%30.07 "HgN/A
2:25 AM46 °FPassing clouds.14 mph76%30.07 "HgN/A
1:25 AM46 °FPassing clouds.16 mph76%30.04 "HgN/A
12:25 AM46 °FPartly cloudy.16 mph76%30.01 "HgN/A
11:55 PM
Oct 21
46 °FPartly cloudy.22 mph76%29.98 "Hg4 mi
11:25 PM48 °FPassing clouds.17 mph71%29.95 "HgN/A
10:25 PM48 °FPassing clouds.20 mph76%29.92 "HgN/A
9:25 PM48 °FPassing clouds.18 mph76%29.89 "HgN/A
8:25 PM50 °FPassing clouds.21 mph71%29.86 "HgN/A
7:25 PM50 °FScattered clouds.17 mph71%29.80 "HgN/A
6:25 PM50 °FPassing clouds.13 mph71%29.77 "HgN/A
5:25 PM54 °FPassing clouds.22 mph63%29.74 "HgN/A
4:25 PM54 °FBroken clouds.18 mph67%29.71 "HgN/A
3:53 PM54 °FPassing clouds.26 mph67%29.71 "Hg3 mi
3:25 PM55 °FScattered clouds.25 mph67%29.68 "HgN/A
2:25 PM57 °FBroken clouds.21 mph77%29.62 "HgN/A
1:49 PM55 °FBroken clouds.22 mph94%29.62 "Hg3 mi
1:25 PM55 °FBroken clouds.24 mph94%29.62 "HgN/A
12:56 PM55 °FBroken clouds.24 mph94%29.62 "Hg2 mi
12:25 PM57 °FPartly sunny.22 mph82%29.65 "HgN/A
11:25 AM55 °FBroken clouds.24 mph88%29.68 "HgN/A
10:25 AM54 °FBroken clouds.21 mph88%29.71 "HgN/A
10:04 AM54 °FBroken clouds.21 mph88%29.74 "HgN/A
9:25 AM54 °FCool.N/A88%29.74 "HgN/A
9:03 AM54 °FCool.N/A88%29.77 "HgN/A
8:25 AM54 °FCool.N/A88%29.80 "HgN/A
Weather by CustomWeather, © 2014

See weather overviewHow to use our weather pages